Other Public Products
Issued by NWS Grand Forks, ND

Home | Current Version | Previous Version | Graphics & Text | Print | Product List | Glossary On
Versions: 1 2 3 4 5 6 7 8 9 10 11 12 13 14 15 16 17 18 19 20 21 22 23 24 25 26 27 28 29 30 31 32 33 34 35 36 37 38 39 40 41 42 43 44 45 46 47 48 49 50
000
FPUS83 KFGF 220810
OPUFGF
PRAIRIE TO PINES WEATHER ROUNDUP
NATIONAL WEATHER SERVICE EASTERN NORTH DAKOTA/GRAND FORKS ND
300 AM CDT MON MAY 22 2017

 **SATELLITE DATA USED TO AUGMENT SKY COVER AT AUTOMATED STATIONS**
 *****  WEATHER ACROSS EASTERN NORTH DAKOTA  *****

CITY           SKY/WX    TMP DP  RH WIND       PRES   REMARKS
GRAND FORKS    LGT RAIN  47  44  90 W9        29.85F
GRAND FORKS AF DRIZZLE   46  44  91 NW9       29.86S
GRAND CITY NWS NOT AVBL
BUXTON         NOT AVBL
DEVILS LAKE    MOCLDY    45  42  89 W8        29.90F
FARGO          MOCLDY    43  41  93 W8        29.88S
WAHPETON ARPT  FAIR      37  36  93 W5        29.89F
$$

 *****  WEATHER ACROSS CENTRAL AND WESTERN NORTH DAKOTA  *****

CITY           SKY/WX    TMP DP  RH WIND       PRES   REMARKS
JAMESTOWN      FAIR      39  38  96 N7        29.90F
BISMARCK       FAIR      45  35  68 NE8       29.90F
MINOT          MOCLDY    47  38  71 N6        29.92S
MINOT AFB      MOCLDY    49  38  64 E8        29.92R
GARRISON         N/A     47  37  68 NE5       29.90F
WILLISTON      FAIR      51  40  65 NW12      29.95F
DICKINSON      LGT RAIN  49  39  68 W13       29.95S
HETTINGER      CLOUDY    49  40  71 NW15      29.99S
$$

 *****  OTHER OBSERVATIONS NORTHEAST NORTH DAKOTA  *****

CITY           SKY/WX    TMP DP  RH WIND       PRES   REMARKS
WALHALLA       NOT AVBL
LANGDON        CLOUDY    45  43  93 NW10      29.88S
CAVALIER       PTSUNNY   48  43  81 W8        29.84F
GRAFTON        FAIR      46  46 100 NW10      29.87S
CANDO          NOT AVBL
FORT TOTTEN      N/A     43  43 100 CALM      29.95S
ROLLA          CLOUDY    45  39  81 NW9       29.92S
RUGBY          NOT AVBL
 ***** THE ABOVE OBSERVATIONS ARE NON NWS ARE NOT QUALITY
        CONTROLLED AND MAY MIS-REPORT RAIN FOR SNOW...
$$

 *****  OTHER OBSERVATIONS SOUTHEAST NORTH DAKOTA *****

CITY           SKY/WX    TMP DP  RH WIND       PRES   REMARKS
COOPERSTOWN    FAIR      43  41  93 W6        29.89F
VALLEY CITY    NOT AVBL
OAKES          NOT AVBL
GWINNER        SUNNY     41  41 100 MISG      29.89S
SHEYENNE NWR     N/A     40  40  99 NW5       29.95S
BUFFALO        NOT AVBL
WYNDMERE         N/A     43  39  87 NW7         N/A
 ***** THE ABOVE OBSERVATIONS ARE NON NWS ARE NOT QUALITY
       CONTROLLED AND MAY MIS-REPORT RAIN FOR SNOW...
$$

  *****  WEATHER ACROSS NORTHERN MINNESOTA  *****

CITY           SKY/WX    TMP DP  RH WIND       PRES   REMARKS
FLAG ISLAND    CLOUDY    46  43  87 NW13      29.76S
WARROAD        CLOUDY    45  41  87 W5        29.79S
ROSEAU         CLOUDY    45  41  87 NW6       29.79S
HALLOCK        DRIZZLE   46  45  93 W7        29.82F
THF RVR FALLS  CLOUDY    45  44  97 NW13      29.82F
HALSTAD          N/A     43  41  92 W10         N/A
FOSSTON        DRIZZLE   43  43 100 W10       29.82S
BAUDETTE       CLOUDY    45  42  89 NW6       29.76R
WASKISH        DRIZZLE   46  43  87 W10       29.76S
CROOKSTON      LGT RAIN  45  45 100 NW14      29.85S
$$
  *****  WEATHER ACROSS CENTRAL AND WEST MINNESOTA  *****

CITY           SKY/WX    TMP DP  RH WIND       PRES   REMARKS
BEMIDJI        DRIZZLE   43  43  99 W7        29.78F
PARK RAPIDS    CLOUDY    45  40  82 W13       29.81S
WADENA         MOCLDY    41  39  93 W6        29.84F
DETROIT LAKES  CLOUDY    43  41  93 W9        29.86S
MOORHEAD       CLOUDY    45  41  87 W8        29.89S
FERGUS FALLS   MOCLDY    41  41 100 NW7       29.88S
ELBOW LAKE     PTSUNNY   42  40  95 NW8       29.88F
MORRIS MN      FAIR      43  39  87 W3        29.88F
STAPLES        FAIR      43  39  87 W7        29.85S
WHEATON        FAIR      43  39  87 SW5       29.91S
$$
  *****  WEATHER ELSEWHERE ACROSS MINNESOTA  *****

CITY           SKY/WX    TMP DP  RH WIND       PRES   REMARKS
DULUTH         CLOUDY    45  43  93 W12       29.76S
INTRNTL FALLS  CLOUDY    45  43  93 NW6       29.72F
ELY            CLOUDY    45  43  93 W6        29.72S
CLOQUET        CLOUDY    45  41  87 W8        29.78S
BRAINERD       FAIR      43  42  97 W10       29.84R
HIBBING        CLOUDY    43  42  97 W5        29.75S
ALEXANDRIA     FAIR      42  40  92 W6        29.88F
SAINT CLOUD    FAIR      40  40 100 S5        29.87F
MINNEAPOLIS    CLOUDY    45  40  82 W5        29.90F
$$

  *****  WEATHER ACROSS SOUTH DAKOTA  *****

CITY           SKY/WX    TMP DP  RH WIND       PRES   REMARKS
SIOUX FALLS    FAIR      53  44  71 VRB6      29.93S
BROOKINGS      MOCLDY    45  42  89 CALM      29.92F
WATERTOWN      FAIR      37  35  92 SE3       29.88F
HURON          FAIR      46  44  93 SW5       29.92S
SISSETON         N/A     42  39  89 CALM      29.88F
ABERDEEN       FAIR      41  39  93 CALM      29.90S
MITCHELL       MOCLDY    53  45  74 W12       29.94S
PIERRE         FAIR      48  42  80 W12       29.95F
MOBRIDGE       FAIR      42  38  85 S3        29.88F
RAPID CITY     FAIR      45  36  70 W6        30.05F
$$

  *****  SOME WEATHER IN NEARBY STATES *****

CITY           SKY/WX    TMP DP  RH WIND       PRES   REMARKS
GLASGOW MT     MOCLDY    46  43  89 NW8       30.05S
GREAT FALLS MT FAIR      49  41  74 SW8       30.16S
CHEYENNE WY    FAIR      39  34  82 NW9       30.23F
SCOTTSBLUFF NE FAIR      42  32  67 NW7       30.17F
OMAHA NE       FAIR      50  44  80 SE9       30.01F
DES MOINES IA  FAIR      49  43  80 SW8       30.01F
DAVENPORT IA   FAIR      48  42  80 SW10      30.04S
CHICAGO IL     MOCLDY    50  42  74 W13       29.99S
EAU CLAIRE WI  LGT RAIN  45  43  93 SW9       29.88S
LA CROSSE WI   FAIR      47  41  80 W8        29.94S
$$

  *****  SOME NATIONAL WEATHER *****

CITY           SKY/WX    TMP DP  RH WIND       PRES   REMARKS
LA GUARDIA NY  LGT RAIN  59  48  67 SE7       30.18F
RALEIGH NC     CLOUDY    69  66  90 SE6       30.07F
ATLANTA GA     MOCLDY    71  68  90 CALM      30.06S
NEW ORLEANS LA MOCLDY    71  69  93 NW7       30.04S
OKLAHOMA CITY  MOCLDY    56  51  84 CALM      30.15S
ALBUQUERQUE NM FAIR      61  19  19 N6        30.14R
SALT LAKE CITY FAIR      53  44  71 S5        30.24R
LOS ANGELES CA MOCLDY    61  59  93 W8        29.96R
BOISE ID       FAIR      58  47  66 SE8       30.18F
SEATTLE WA     FAIR      64  48  56 NE8       30.18F
$$

*** WEATHER ACROSS MANITOBA...SASKATCHEWAN AND ONTARIO ***
                ***ONTARIO***

CITY           SKY/WX    TMP DP  RH WIND       PRES   REMARKS
GERALDTON      CLOUDY    46  46 100 SE5       29.66S FOG
THUNDER BAY    CLOUDY    45  45 100 W8        29.67S
SIOUX LOOKOUT  LGT RAIN  43  43 100 N3        29.69F FOG
TORONTO        CLOUDY    54  54 100 CALM      29.90S FOG
BIG TROUT LK   CLOUDY    46  36  66 E9        29.93S
PICKLE LAKE    NOT AVBL
DRYDEN         LGT RAIN  43  43 100 NW5       29.70S FOG
KENORA         CLOUDY    43  43 100 N7        29.75S
$$
                *** MANITOBA***

CITY           SKY/WX    TMP DP  RH WIND       PRES   REMARKS
BRANDON        MOCLDY    45  37  76 NW10      29.92F
DAUPHIN        CLOUDY    46  39  76 W7        29.94S
ISLAND LAKE    NOT AVBL
PILOT MOUND      N/A     46  39  76 NW12        N/A
THE PAS        MOCLDY    46  34  61 N3        30.02F
THOMPSON       MOCLDY    45  32  61 NE13G18   30.05R
WINNIPEG       CLOUDY    46  45  93 N8        29.83R
LYNN LAKE      CLEAR     45  30  57 NE7       30.14R
CHURCHILL      FOG       30  30 100 NE12      30.26R VSB 1/2 WCI  21
$$
                ***SASKATCHEWAN***

CITY           SKY/WX    TMP DP  RH WIND       PRES   REMARKS
ESTEVAN        MOCLDY    48  41  76 CALM      29.95R
KINDERSLEY     PTCLDY    46  37  71 E3        30.11R
LLOYDMINSTER   CLEAR     45  43  93 W2        30.15R
PRINCE ALBERT  PTCLDY    48  41  76 SW3       30.06S
REGINA         CLOUDY    48  41  76 NW13      30.00S
YORKTON        CLOUDY    41  39  93 E2        29.99R
N. BATTLEFORD  CLEAR     43  37  81 N7        30.13S



USA.gov is the U.S. government's official web portal to all federal, state and local government web resources and services.